When you browse on this site, cookies collect data to enhance your experience and personalize the content and advertising you see.
Visit our Privacy Policy to learn more. By continuing to use the site, you agree to this use of cookies and data.
  • In Czech Republic
  • List of Countries
  • For 7 days
  • Water Temperature
  • Satellite Maps
  • Weather Map
  • Weather Widgets
  • user-avatar
    Login

    Hourly Weather Nkongsamba

    Today, 22 January, Tuesday

    Time Temperature Precipitation Wind Pressure Humidity
    00:00 +21°C° 0 mm 0 mps 686 mmHg 80%
    01:00 +22°C° 0 mm 1 mps 686 mmHg 82%
    02:00 +22°C° 0 mm 1 mps 686 mmHg 83%
    03:00 +22°C° 0 mm 1 mps 685 mmHg 83%
    04:00 +19°C° 0 mm 0 mps 685 mmHg 84%
    05:00 +19°C° 0 mm 0 mps 685 mmHg 84%
    06:00 +19°C° 0 mm 0 mps 686 mmHg 85%
    07:00 +20°C° 0 mm 0 mps 686 mmHg 82%
    08:00 +25°C° 0 mm 1 mps 687 mmHg 70%
    09:00 +28°C° 0 mm 1 mps 687 mmHg 59%
    10:00 +31°C° 0 mm 1 mps 688 mmHg 47%
    11:00 +32°C° 0 mm 1 mps 688 mmHg 41%
    12:00 +34°C° 0 mm 2 mps 687 mmHg 36%
    13:00 +36°C° 0 mm 2 mps 687 mmHg 32%
    14:00 +35°C° 0 mm 2 mps 687 mmHg 34%
    15:00 +35°C° 0 mm 2 mps 686 mmHg 36%
    16:00 +34°C° 0 mm 2 mps 685 mmHg 38%
    17:00 +31°C° 0.6 mm 2 mps 685 mmHg 47%
    18:00 +28°C° 0.6 mm 1 mps 685 mmHg 57%
    19:00 +26°C° 0.6 mm 1 mps 685 mmHg 66%
    20:00 +25°C° 1.2 mm 1 mps 686 mmHg 73%
    21:00 +22°C° 1.2 mm 0 mps 686 mmHg 81%
    22:00 +21°C° 1.2 mm 0 mps 686 mmHg 88%
    23:00 +20°C° 0.3 mm 0 mps 686 mmHg 88%

    Tomorrow, 23 January, Wednesday

    Time Temperature Precipitation Wind Pressure Humidity
    00:00 +20°C° 0.3 mm 0 mps 686 mmHg 89%
    01:00 +20°C° 0.3 mm 0 mps 686 mmHg 89%
    02:00 +20°C° 0 mm 0 mps 686 mmHg 89%
    03:00 +20°C° 0 mm 0 mps 686 mmHg 89%
    04:00 +19°C° 0 mm 0 mps 685 mmHg 89%
    05:00 +19°C° 0 mm 0 mps 685 mmHg 89%
    06:00 +19°C° 0 mm 0 mps 686 mmHg 88%
    07:00 +19°C° 0 mm 0 mps 686 mmHg 88%
    08:00 +22°C° 0 mm 0 mps 686 mmHg 78%
    09:00 +26°C° 0 mm 1 mps 687 mmHg 69%
    10:00 +29°C° 0 mm 1 mps 688 mmHg 59%
    11:00 +30°C° 0 mm 1 mps 688 mmHg 52%
    12:00 +32°C° 0 mm 1 mps 688 mmHg 44%
    13:00 +35°C° 0 mm 2 mps 687 mmHg 37%
    14:00 +34°C° 0 mm 2 mps 687 mmHg 37%
    15:00 +34°C° 0 mm 2 mps 686 mmHg 37%
    16:00 +34°C° 0 mm 2 mps 685 mmHg 37%
    17:00 +31°C° 0.1 mm 2 mps 685 mmHg 47%
    18:00 +29°C° 0.1 mm 2 mps 685 mmHg 56%
    19:00 +26°C° 0.1 mm 2 mps 685 mmHg 66%
    20:00 +25°C° 0.4 mm 1 mps 685 mmHg 73%
    21:00 +24°C° 0.4 mm 1 mps 686 mmHg 80%
    22:00 +21°C° 0.4 mm 0 mps 686 mmHg 88%
    23:00 +21°C° 0.6 mm 0 mps 686 mmHg 90%

    Day after tomorrow, 24 January, Thursday

    Time Temperature Precipitation Wind Pressure Humidity
    00:00 +20°C° 0.6 mm 0 mps 686 mmHg 92%
    01:00 +20°C° 0.6 mm 0 mps 686 mmHg 94%
    02:00 +20°C° 1.3 mm 0 mps 685 mmHg 95%
    03:00 +20°C° 1.3 mm 0 mps 685 mmHg 95%
    04:00 +19°C° 1.3 mm 0 mps 684 mmHg 95%
    05:00 +19°C° 0.2 mm 0 mps 685 mmHg 94%
    06:00 +19°C° 0.2 mm 0 mps 685 mmHg 94%
    07:00 +19°C° 0.2 mm 0 mps 685 mmHg 93%
    08:00 +22°C° 0 mm 0 mps 686 mmHg 83%
    09:00 +26°C° 0 mm 1 mps 687 mmHg 72%
    10:00 +29°C° 0 mm 1 mps 688 mmHg 61%
    11:00 +30°C° 0.1 mm 1 mps 687 mmHg 55%
    12:00 +31°C° 0.1 mm 2 mps 687 mmHg 49%
    13:00 +34°C° 0.1 mm 2 mps 686 mmHg 43%
    14:00 +34°C° 0.2 mm 2 mps 686 mmHg 43%
    15:00 +34°C° 0.2 mm 2 mps 685 mmHg 43%
    16:00 +32°C° 0.2 mm 2 mps 684 mmHg 42%
    17:00 +30°C° 0.5 mm 1 mps 684 mmHg 51%
    18:00 +28°C° 0.5 mm 1 mps 684 mmHg 60%
    19:00 +26°C° 0.5 mm 1 mps 684 mmHg 69%
    20:00 +25°C° 0.5 mm 1 mps 685 mmHg 74%
    21:00 +22°C° 0.5 mm 0 mps 685 mmHg 79%
    22:00 +21°C° 0.5 mm 0 mps 686 mmHg 85%
    23:00 +21°C° 0.7 mm 0 mps 686 mmHg 86%

    25 January, Friday

    Time Temperature Precipitation Wind Pressure Humidity
    00:00 +22°C° 0.7 mm 1 mps 685 mmHg 87%
    01:00 +22°C° 0.7 mm 1 mps 685 mmHg 88%
    02:00 +22°C° 0.3 mm 1 mps 685 mmHg 88%
    03:00 +22°C° 0.3 mm 1 mps 684 mmHg 88%
    04:00 +22°C° 0.3 mm 1 mps 684 mmHg 88%
    05:00 +22°C° 0 mm 1 mps 684 mmHg 87%
    06:00 +22°C° 0 mm 1 mps 685 mmHg 87%
    07:00 +19°C° 0 mm 0 mps 685 mmHg 87%
    08:00 +24°C° 0 mm 1 mps 686 mmHg 75%
    09:00 +27°C° 0 mm 1 mps 687 mmHg 64%
    10:00 +30°C° 0 mm 1 mps 688 mmHg 52%
    11:00 +31°C° 0.5 mm 1 mps 687 mmHg 49%
    12:00 +32°C° 0.5 mm 1 mps 687 mmHg 45%
    13:00 +34°C° 0.5 mm 2 mps 687 mmHg 41%
    14:00 +32°C° 0.3 mm 1 mps 686 mmHg 44%
    15:00 +32°C° 0.3 mm 1 mps 685 mmHg 46%
    16:00 +31°C° 0.3 mm 1 mps 684 mmHg 49%
    17:00 +29°C° 1.2 mm 1 mps 684 mmHg 57%
    18:00 +27°C° 1.2 mm 1 mps 684 mmHg 65%
    19:00 +25°C° 1.2 mm 1 mps 684 mmHg 73%
    20:00 +24°C° 0.1 mm 1 mps 685 mmHg 76%
    21:00 +24°C° 0.1 mm 1 mps 685 mmHg 78%
    22:00 +23°C° 0.1 mm 1 mps 686 mmHg 81%
    23:00 +21°C° 0 mm 0 mps 685 mmHg 82%

    26 January, Saturday

    Time Temperature Precipitation Wind Pressure Humidity
    00:00 +21°C° 0 mm 0 mps 685 mmHg 83%
    01:00 +20°C° 0 mm 0 mps 685 mmHg 85%
    02:00 +20°C° 0.2 mm 0 mps 685 mmHg 85%
    03:00 +20°C° 0.2 mm 0 mps 684 mmHg 86%
    04:00 +20°C° 0.2 mm 0 mps 684 mmHg 87%
    05:00 +20°C° 0.1 mm 0 mps 684 mmHg 87%
    06:00 +20°C° 0.1 mm 0 mps 685 mmHg 86%
    07:00 +20°C° 0.1 mm 0 mps 685 mmHg 86%
    08:00 +22°C° 0 mm 0 mps 686 mmHg 76%
    09:00 +27°C° 0 mm 1 mps 687 mmHg 66%
    10:00 +29°C° 0 mm 1 mps 688 mmHg 56%
    11:00 +31°C° 0.2 mm 1 mps 687 mmHg 52%
    12:00 +32°C° 0.2 mm 2 mps 687 mmHg 47%
    13:00 +34°C° 0.2 mm 2 mps 686 mmHg 42%
    14:00 +34°C° 0.4 mm 2 mps 686 mmHg 44%
    15:00 +32°C° 0.4 mm 2 mps 685 mmHg 46%
    16:00 +31°C° 0.4 mm 2 mps 684 mmHg 47%
    17:00 +29°C° 1.3 mm 2 mps 684 mmHg 59%
    18:00 +27°C° 1.3 mm 1 mps 684 mmHg 70%
    19:00 +24°C° 1.3 mm 1 mps 684 mmHg 81%
    20:00 +24°C° 0.6 mm 1 mps 685 mmHg 85%
    21:00 +21°C° 0.6 mm 0 mps 686 mmHg 89%
    22:00 +21°C° 0.6 mm 0 mps 686 mmHg 92%
    23:00 +21°C° 0.8 mm 0 mps 686 mmHg 93%

    27 January, Sunday

    Time Temperature Precipitation Wind Pressure Humidity
    00:00 +20°C° 0.8 mm 0 mps 686 mmHg 94%
    01:00 +20°C° 0.8 mm 0 mps 685 mmHg 94%
    02:00 +20°C° 0.4 mm 0 mps 685 mmHg 94%
    03:00 +20°C° 0.4 mm 0 mps 685 mmHg 93%
    04:00 +20°C° 0.4 mm 0 mps 684 mmHg 93%
    05:00 +19°C° 0 mm 0 mps 685 mmHg 93%
    06:00 +19°C° 0 mm 0 mps 685 mmHg 93%
    07:00 +19°C° 0 mm 0 mps 685 mmHg 93%
    08:00 +22°C° 0 mm 0 mps 686 mmHg 83%
    09:00 +26°C° 0 mm 1 mps 687 mmHg 73%
    10:00 +28°C° 0 mm 1 mps 688 mmHg 63%
    11:00 +29°C° 0.4 mm 1 mps 687 mmHg 59%
    12:00 +31°C° 0.4 mm 1 mps 687 mmHg 55%
    13:00 +32°C° 0.4 mm 1 mps 686 mmHg 50%
    14:00 +31°C° 0.8 mm 1 mps 686 mmHg 51%
    15:00 +31°C° 0.8 mm 1 mps 685 mmHg 52%
    16:00 +31°C° 0.8 mm 1 mps 685 mmHg 53%
    17:00 +29°C° 2 mm 1 mps 685 mmHg 63%
    18:00 +26°C° 2 mm 1 mps 685 mmHg 74%
    19:00 +24°C° 2 mm 1 mps 685 mmHg 84%
    20:00 +24°C° 1.2 mm 1 mps 685 mmHg 87%
    21:00 +21°C° 1.2 mm 0 mps 686 mmHg 89%
    22:00 +21°C° 1.2 mm 0 mps 686 mmHg 92%
    23:00 +20°C° 0.3 mm 0 mps 686 mmHg 92%
    Show more